カタログに戻る

FENGYUN 1C DEB

LostSSO
NORAD 35177·DEBRIS·🇨🇳 China

打ち上げ May 10, 1999 から Taiyuan Satellite Launch Center

Loading…

次のパス (今後24時間)

TLE

古いSource: Space-Track

元期: Sep 3, 2022, 00:17 UTC

1 35177U 99025DNH 22246.01215456  .00000798  00000-0  41262-3 0  9990
2 35177  98.7202 317.2429 0040376 283.9374 199.6789 14.17384117771378

AllMySatでFENGYUN 1C DEBをリアルタイム追跡

Download on the App Store